DIERAUER Weather Reports


time (UTC)temp
C
wind
direction
speed
KPH
gust
KPH
rain 1hr
cm
rain 24hr
cm
rain mn
cm
humidity
%
barometer
mb
20260507070503 6 243 0.0 3.2 0.00 0.25 0.00 89 1013.8
20260507070011 6 243 0.0 3.2 0.00 0.25 0.00 88 1013.9
20260507065503 6 243 0.0 3.2 0.00 0.25 0.00 88 1013.9
20260507065003 6 243 0.0 3.2 0.00 0.25 0.00 87 1013.9
20260507064517 6 243 0.0 3.2 0.00 0.25 0.00 87 1013.8
20260507064003 6 243 0.0 3.2 0.00 0.25 0.00 87 1013.9
20260507063504 6 243 0.0 3.2 0.00 0.25 0.00 87 1013.8
20260507063011 6 243 1.6 3.2 0.00 0.28 0.00 86 1013.9
20260507062506 6 248 1.6 3.2 0.00 0.30 0.00 87 1014.0
20260507062006 6 248 1.6 3.2 0.00 0.33 0.00 87 1013.9
20260507061508 6 248 1.6 3.2 0.00 0.36 0.00 87 1013.9
20260507061003 6 286 1.6 3.2 0.00 0.38 0.00 85 1013.9
20260507060511 6 286 0.0 1.6 0.00 0.41 0.00 83 1013.8
20260507060015 6 286 0.0 0.0 0.00 0.43 0.00 82 1013.9
20260507055503 6 286 0.0 0.0 0.00 0.43 0.00 83 1014.0
20260507055003 6 286 0.0 3.2 0.00 0.48 0.00 84 1014.0
20260507054510 6 286 0.0 3.2 0.00 0.53 0.00 83 1013.9
20260507054004 6 286 0.0 1.6 0.00 0.61 0.00 81 1013.9
20260507053505 6 277 0.0 0.0 0.00 0.64 0.00 80 1014.0
20260507053016 7 277 0.0 1.6 0.00 0.66 0.00 79 1014.0
20260507052504 7 277 0.0 3.2 0.00 0.74 0.00 77 1014.1
20260507052005 7 277 0.0 3.2 0.00 0.81 0.00 77 1014.2
20260507051519 7 277 0.0 0.0 0.00 0.84 0.00 78 1014.2
20260507051007 7 277 0.0 3.2 0.00 0.84 0.00 80 1014.2
20260507050503 7 277 0.0 3.2 0.00 0.89 0.00 83 1014.3
20260507050019 7 277 0.0 3.2 0.00 0.89 0.00 81 1014.3
20260507045505 7 227 0.0 1.6 0.00 0.89 0.00 84 1014.3
20260507045006 7 227 0.0 1.6 0.00 0.91 0.00 83 1014.3
20260507044503 7 309 0.0 1.6 0.00 0.91 0.00 81 1014.3
20260507044002 7 309 0.0 1.6 0.00 0.94 0.00 83 1014.3
20260507043501 7 309 1.6 1.6 0.00 0.97 0.00 82 1014.3
20260507043008 7 309 0.0 3.2 0.00 0.97 0.00 79 1014.3
20260507042506 7 309 0.0 3.2 0.00 0.97 0.00 80 1014.3
20260507042005 7 309 0.0 0.0 0.00 0.97 0.00 78 1014.2
20260507041527 7 309 0.0 0.0 0.00 0.97 0.00 77 1014.2
20260507041005 7 309 0.0 0.0 0.00 0.97 0.00 75 1014.2
20260507040506 7 309 0.0 0.0 0.00 0.97 0.00 74 1014.2
20260507040017 7 309 0.0 0.0 0.00 0.97 0.00 74 1014.2
20260507035503 7 309 0.0 3.2 0.00 0.97 0.97 74 1014.2
20260507035005 8 309 0.0 3.2 0.00 0.97 0.97 72 1014.3
20260507034521 8 309 0.0 1.6 0.00 0.97 0.97 73 1014.3
20260507034008 7 309 0.0 1.6 0.00 0.97 0.97 74 1014.3
20260507033505 8 309 0.0 0.0 0.00 0.97 0.97 73 1014.3
20260507033008 8 309 0.0 0.0 0.00 0.97 0.97 73 1014.4
20260507032501 7 309 0.0 0.0 0.00 0.97 0.97 73 1014.5
20260507032001 8 309 0.0 0.0 0.00 0.97 0.97 73 1014.5
20260507031518 8 309 0.0 0.0 0.00 0.97 0.97 74 1014.5
20260507031012 8 309 0.0 0.0 0.00 0.97 0.97 73 1014.5
20260507030508 8 309 0.0 0.0 0.00 0.97 0.97 73 1014.5
20260507030013 8 309 0.0 0.0 0.00 0.99 0.97 73 1014.5
20260507025506 8 309 0.0 0.0 0.00 0.99 0.97 74 1014.5
20260507025006 8 309 0.0 0.0 0.00 1.02 0.97 74 1014.5
20260507024506 8 309 0.0 0.0 0.00 1.02 0.97 74 1014.6
20260507024005 8 309 0.0 0.0 0.00 1.07 0.97 73 1014.5
20260507023507 8 309 0.0 0.0 0.00 1.09 0.97 73 1014.5
20260507023025 8 309 0.0 0.0 0.00 1.09 0.97 73 1014.6
20260507022502 8 309 0.0 0.0 0.00 1.12 0.97 73 1014.5
20260507022010 8 309 0.0 0.0 0.00 1.14 0.97 73 1014.4
20260507021510 8 309 0.0 0.0 0.00 1.14 0.97 73 1014.4
20260507021003 8 309 0.0 0.0 0.00 1.14 0.97 73 1014.4
20260507020503 8 309 0.0 3.2 0.00 1.14 0.97 71 1014.3
20260507020014 8 309 0.0 3.2 0.00 1.14 0.97 72 1014.1
20260507015504 8 309 0.0 3.2 0.00 1.17 0.97 79 1014.1
20260507015002 8 309 0.0 3.2 0.00 1.19 0.97 74 1014.1
20260507014522 9 309 0.0 3.2 0.00 1.19 0.97 72 1013.9
20260507014005 9 309 0.0 3.2 0.00 1.22 0.97 72 1013.7
20260507013507 9 309 0.0 0.0 0.00 1.22 0.97 72 1013.7
20260507013021 8 309 0.0 0.0 0.00 1.24 0.97 75 1013.8
20260507012508 8 309 0.0 0.0 0.00 1.27 0.97 75 1013.9
20260507012006 8 309 0.0 0.0 0.00 1.32 0.97 72 1013.9
20260507011517 8 309 0.0 0.0 0.00 1.32 0.97 72 1013.9
20260507011005 9 309 0.0 0.0 0.00 1.32 0.97 71 1013.9
20260507010507 9 309 0.0 0.0 0.00 1.37 0.97 68 1013.9
20260507010010 9 309 0.0 0.0 0.00 1.37 0.97 69 1013.9
20260507005506 9 309 0.0 3.2 0.00 1.37 0.97 68 1013.7
20260507005002 10 309 0.0 3.2 0.00 1.40 0.97 66 1013.8
20260507004531 10 309 0.0 3.2 0.00 1.40 0.97 66 1013.9
20260507004006 10 309 0.0 3.2 0.00 1.40 0.97 65 1013.7
20260507003505 10 309 0.0 3.2 0.00 1.42 0.97 66 1013.5
20260507003021 10 317 0.0 3.2 0.00 1.42 0.97 66 1013.4
20260507002509 10 329 0.0 4.8 0.00 1.42 0.97 66 1013.3
20260507002006 10 318 1.6 4.8 0.00 1.42 0.97 66 1013.2
20260507001526 10 338 0.0 6.4 0.00 1.42 0.97 67 1013.2
20260507001008 10 324 3.2 6.4 0.00 1.42 0.97 64 1013.2
20260507000505 11 327 3.2 8.0 0.00 1.42 0.97 64 1013.0
20260507000025 11 338 4.8 8.0 0.00 1.45 0.97 63 1013.1
20260506235507 11 336 4.8 8.0 0.00 1.45 0.97 63 1013.1
20260506235003 11 327 4.8 9.7 0.00 1.45 0.97 62 1013.1
20260506234520 11 320 4.8 14.5 0.00 1.45 0.97 62 1013.0
20260506234004 11 327 8.0 16.1 0.00 1.45 0.97 60 1013.0
20260506233509 12 345 8.0 16.1 0.00 1.45 0.97 60 1012.9
20260506233014 12 313 9.7 16.1 0.00 1.45 0.97 59 1012.9
20260506232505 12 344 9.7 17.7 0.00 1.45 0.97 60 1013.0
20260506232006 12 332 11.3 17.7 0.00 1.45 0.97 59 1013.0
20260506231532 12 328 9.7 16.1 0.00 1.45 0.97 60 1013.1
20260506231003 12 347 9.7 16.1 0.00 1.45 0.97 59 1013.0
20260506230506 12 335 9.7 14.5 0.00 1.45 0.97 61 1013.0
20260506230027 12 313 4.8 12.9 0.00 1.45 0.97 61 1013.0
20260506225505 12 346 8.0 16.1 0.00 1.45 0.97 59 1013.1
20260506225006 12 318 4.8 16.1 0.00 1.45 0.97 60 1013.2
20260506224528 12 325 9.7 14.5 0.00 1.45 0.97 58 1013.1
20260506224007 12 339 6.4 16.1 0.00 1.45 0.97 58 1013.2
20260506223503 12 313 9.7 16.1 0.00 1.45 0.97 59 1013.2
20260506223027 12 351 6.4 16.1 0.00 1.45 0.97 59 1013.2
20260506222504 12 325 8.0 14.5 0.00 1.45 0.97 57 1013.3
20260506222010 12 231 4.8 12.9 0.00 1.45 0.97 59 1013.5
20260506221521 12 317 6.4 12.9 0.00 1.45 0.97 59 1013.4
20260506221010 12 331 6.4 12.9 0.00 1.45 0.97 59 1013.5
20260506220509 12 331 4.8 14.5 0.00 1.45 0.97 62 1013.4
20260506220024 12 340 3.2 17.7 0.00 1.45 0.97 60 1013.4
20260506215509 12 319 8.0 17.7 0.00 1.47 0.97 61 1013.3
20260506215011 12 24 1.6 14.5 0.00 1.47 0.97 61 1013.3
20260506214528 12 315 6.4 16.1 0.00 1.47 0.97 61 1013.2
20260506214008 12 339 6.4 16.1 0.00 1.47 0.97 61 1013.0
20260506213507 12 333 8.0 16.1 0.00 1.47 0.97 61 1012.9
20260506213029 12 333 9.7 16.1 0.00 1.47 0.97 60 1012.9
20260506212507 13 319 6.4 14.5 0.00 1.47 0.97 60 1012.9
20260506212009 13 334 3.2 14.5 0.00 1.47 0.97 60 1012.9
20260506211529 13 323 8.0 22.5 0.00 1.52 0.97 61 1012.8
20260506211008 13 331 6.4 22.5 0.00 1.52 0.97 60 1012.7
20260506210507 12 336 11.3 17.7 0.00 1.55 0.97 61 1012.6
20260506210025 12 344 9.7 20.9 0.00 1.57 0.97 59 1012.7
20260506205511 12 317 11.3 20.9 0.00 1.60 0.97 61 1012.7
20260506205004 12 360 14.5 20.9 0.00 1.63 0.97 59 1012.8
20260506204526 12 334 11.3 20.9 0.00 1.68 0.97 60 1012.8
20260506204008 12 342 12.9 17.7 0.00 1.70 0.97 61 1012.8
20260506203511 12 309 9.7 19.3 0.00 1.73 0.97 60 1012.8
20260506203028 13 319 8.0 20.9 0.00 1.75 0.97 60 1012.7
20260506202507 13 323 12.9 20.9 0.00 1.75 0.97 60 1012.7
20260506202011 13 336 16.1 22.5 0.00 1.75 0.97 58 1012.7
20260506201532 13 344 16.1 22.5 0.00 1.75 0.97 58 1012.5
20260506201010 13 319 11.3 20.9 0.00 1.75 0.97 57 1012.7
20260506200505 13 334 8.0 17.7 0.00 1.75 0.97 56 1012.7
20260506200024 13 327 11.3 25.7 0.00 1.75 0.97 57 1012.5
20260506195505 14 317 16.1 25.7 0.00 1.75 0.97 58 1012.5
20260506195005 14 346 14.5 24.1 0.00 1.75 0.97 58 1012.4
20260506194528 15 312 14.5 27.4 0.00 1.75 0.97 57 1012.4
20260506194008 15 344 17.7 27.4 0.00 1.75 0.97 55 1012.4
20260506193508 15 338 4.8 17.7 0.00 1.75 0.97 56 1012.3
20260506193027 15 316 8.0 17.7 0.00 1.75 0.97 58 1012.5
20260506192512 15 340 8.0 17.7 0.00 1.75 0.97 61 1012.5
20260506192008 15 340 8.0 19.3 0.00 1.75 0.97 58 1012.5
20260506191526 15 329 8.0 20.9 0.00 1.75 0.97 61 1012.5
20260506191012 15 329 12.9 20.9 0.00 1.75 0.97 58 1012.5
20260506190507 15 308 8.0 20.9 0.00 1.75 0.97 59 1012.4
20260506190020 15 344 11.3 24.1 0.00 1.75 0.97 56 1012.2
20260506185510 15 319 16.1 24.1 0.00 1.75 0.97 56 1012.1
20260506185014 15 343 16.1 22.5 0.00 1.75 0.97 60 1012.3
20260506184523 15 348 6.4 24.1 0.00 1.75 0.97 58 1012.3
20260506184014 15 322 12.9 24.1 0.00 1.75 0.97 59 1012.3
20260506183510 15 313 14.5 25.7 0.00 1.75 0.97 61 1012.4
20260506183029 15 348 16.1 25.7 0.00 1.75 0.97 59 1012.4
20260506182507 15 352 17.7 25.7 0.00 1.75 0.97 59 1012.3
20260506182012 15 315 8.0 24.1 0.00 1.75 0.97 59 1012.3
20260506181528 15 340 14.5 24.1 0.00 1.75 0.97 60 1012.4
20260506181010 15 332 14.5 19.3 0.00 1.75 0.97 61 1012.4
20260506180509 15 311 11.3 19.3 0.00 1.75 0.97 67 1012.4
20260506180030 15 12 12.9 22.5 0.00 1.75 0.97 62 1012.5
20260506175507 14 344 9.7 22.5 0.00 1.75 0.97 59 1012.5
20260506175007 14 323 14.5 22.5 0.00 1.75 0.97 61 1012.6
20260506174523 14 331 12.9 24.1 0.00 1.75 0.97 63 1012.5
20260506174006 14 310 16.1 24.1 0.00 1.75 0.97 62 1012.6
20260506173505 14 329 8.0 19.3 0.00 1.75 0.97 62 1012.7
20260506173024 14 344 16.1 25.7 0.00 1.75 0.97 63 1012.6
20260506172506 13 341 6.4 25.7 0.00 1.75 0.97 63 1012.6
20260506172009 14 360 11.3 20.9 0.00 1.75 0.97 63 1012.6
20260506171530 13 328 12.9 19.3 0.00 1.75 0.97 63 1012.6
20260506171010 13 360 6.4 19.3 0.00 1.75 0.97 65 1012.6
20260506170510 13 302 8.0 24.1 0.00 1.75 0.97 67 1012.8
20260506170024 13 315 8.0 24.1 0.00 1.75 0.97 61 1012.8
20260506165512 13 360 14.5 27.4 0.00 1.75 0.97 64 1012.8
20260506165011 13 9 16.1 27.4 0.00 1.75 0.97 64 1012.8
20260506164506 13 351 12.9 20.9 0.00 1.75 0.97 68 1012.6
20260506164004 13 339 14.5 24.1 0.00 1.75 0.97 67 1012.7
20260506163502 13 305 12.9 24.1 0.00 1.75 0.97 64 1012.5
20260506163002 13 346 14.5 20.9 0.00 1.75 0.97 64 1012.4
20260506162502 13 14 9.7 20.9 0.00 1.75 0.97 65 1012.4
20260506162002 13 312 8.0 19.3 0.00 1.75 0.97 65 1012.3
20260506161505 13 316 12.9 19.3 0.00 1.75 0.97 67 1012.4
20260506161002 13 360 12.9 19.3 0.00 1.75 0.97 65 1012.7
20260506160503 12 302 8.0 22.5 0.00 1.75 0.97 67 1012.9
20260506160004 13 346 8.0 22.5 0.00 1.75 0.97 71 1012.9
20260506155502 12 316 8.0 17.7 0.00 1.75 0.97 67 1012.9
20260506155003 12 315 11.3 17.7 0.00 1.75 0.97 70 1012.8
20260506154504 12 332 12.9 20.9 0.00 1.75 0.97 70 1012.8
20260506154003 12 344 6.4 29.0 0.00 1.75 0.97 70 1012.6
20260506153502 12 344 14.5 29.0 0.00 1.75 0.97 74 1012.4
20260506153003 12 340 17.7 29.0 0.00 1.75 0.97 70 1012.2
20260506152504 11 338 14.5 25.7 0.00 1.75 0.97 71 1012.1
20260506152003 12 335 16.1 25.7 0.00 1.75 0.97 69 1012.0
20260506151505 12 5 16.1 25.7 0.00 1.75 0.97 72 1011.9
20260506151002 11 339 17.7 25.7 0.00 1.75 0.97 72 1011.9
20260506150503 11 347 19.3 24.1 0.00 1.75 0.97 74 1011.8
20260506150004 11 323 14.5 25.7 0.00 1.75 0.97 74 1011.8
20260506145503 11 348 16.1 25.7 0.00 1.75 0.97 76 1011.8
20260506145002 11 334 12.9 22.5 0.00 1.75 0.97 77 1011.7
20260506144503 11 343 9.7 19.3 0.00 1.75 0.97 80 1011.6
20260506144002 10 347 12.9 19.3 0.00 1.75 0.97 81 1011.7
20260506143503 10 352 14.5 19.3 0.00 1.75 0.97 80 1011.8
20260506143007 10 333 12.9 19.3 0.00 1.75 0.97 81 1011.7
20260506142502 10 344 11.3 19.3 0.00 1.75 0.97 84 1011.6
20260506142006 9 360 12.9 20.9 0.00 1.75 0.97 81 1011.5
20260506141507 9 323 9.7 20.9 0.00 1.75 0.97 83 1011.5
20260506141006 9 328 14.5 20.9 0.00 1.75 0.97 84 1011.4
20260506140503 9 342 14.5 19.3 0.00 1.75 0.97 82 1011.5
20260506140004 9 336 11.3 19.3 0.00 1.75 0.97 84 1011.5
20260506135503 8 325 9.7 16.1 0.00 1.75 0.97 82 1011.5
20260506135006 9 352 11.3 17.7 0.00 1.75 0.97 82 1011.5
20260506134504 8 352 9.7 20.9 0.00 1.75 0.97 84 1011.5
20260506134003 8 326 12.9 20.9 0.00 1.75 0.97 84 1011.3
20260506133503 8 352 12.9 20.9 0.00 1.75 0.97 84 1011.1
20260506133003 8 352 17.7 20.9 0.00 1.75 0.97 84 1011.1
20260506132502 8 352 12.9 20.9 0.00 1.75 0.97 86 1011.0
20260506132005 8 331 16.1 20.9 0.00 1.75 0.97 86 1010.9
20260506131506 8 351 14.5 20.9 0.00 1.75 0.97 86 1010.9
20260506131007 8 352 12.9 20.9 0.00 1.75 0.97 87 1010.8
20260506130504 8 335 12.9 20.9 0.00 1.75 0.97 87 1010.6
20260506130011 8 347 12.9 19.3 0.00 1.75 0.97 87 1010.8
20260506125503 8 317 12.9 17.7 0.00 1.75 0.97 87 1010.7
20260506125005 8 325 12.9 20.9 0.00 1.75 0.97 87 1010.8
20260506124507 7 311 14.5 20.9 0.00 1.75 0.97 87 1010.7
20260506124003 8 339 14.5 19.3 0.00 1.75 0.97 88 1010.8
20260506123508 7 326 12.9 19.3 0.00 1.75 0.97 89 1010.7
20260506123006 7 330 9.7 19.3 0.00 1.75 0.97 89 1010.6
20260506122502 7 328 9.7 16.1 0.00 1.75 0.97 90 1010.3
20260506122011 7 338 11.3 16.1 0.00 1.75 0.97 90 1010.3
20260506121510 7 316 9.7 16.1 0.00 1.75 0.97 91 1010.1
20260506121003 7 352 9.7 14.5 0.00 1.75 0.97 91 1010.0
20260506120504 7 334 8.0 14.5 0.00 1.75 0.97 91 1009.8
20260506120008 7 331 9.7 14.5 0.00 1.75 0.97 91 1009.7
20260506115504 7 336 8.0 14.5 0.00 1.75 0.97 92 1009.4
20260506115003 7 343 8.0 16.1 0.00 1.75 0.97 92 1009.3
20260506114509 6 351 6.4 16.1 0.00 1.75 0.97 92 1009.3
20260506114006 6 336 9.7 16.1 0.00 1.75 0.97 92 1009.4
20260506113507 6 329 8.0 17.7 0.00 1.75 0.97 92 1009.4
20260506113016 6 331 11.3 17.7 0.00 1.75 0.97 92 1009.2
20260506112506 6 322 9.7 16.1 0.00 1.75 0.97 92 1009.4
20260506112006 6 306 9.7 16.1 0.00 1.75 0.97 92 1009.2
20260506111509 6 320 11.3 16.1 0.00 1.75 0.97 93 1009.1
20260506111006 6 323 9.7 14.5 0.00 1.75 0.97 93 1009.2
20260506110504 6 280 6.4 16.1 0.00 1.75 0.97 93 1009.2
20260506110011 6 322 4.8 16.1 0.00 1.75 0.97 93 1009.2
20260506105504 6 336 6.4 16.1 0.00 1.75 0.97 92 1009.0
20260506105003 6 322 9.7 17.7 0.00 1.75 0.97 93 1008.9
20260506104508 6 322 6.4 22.5 0.00 1.75 0.97 93 1008.6
20260506104002 6 323 11.3 22.5 0.00 1.75 0.97 93 1008.2
20260506103508 6 330 12.9 19.3 0.00 1.75 0.97 93 1008.3
20260506103011 6 343 14.5 20.9 0.00 1.75 0.97 93 1008.1
20260506102504 6 331 14.5 20.9 0.00 1.75 0.97 93 1008.0
20260506102004 6 345 14.5 19.3 0.00 1.75 0.97 93 1008.0
20260506101512 6 352 12.9 17.7 0.00 1.75 0.97 93 1008.0
20260506101006 6 352 14.5 17.7 0.00 1.75 0.97 92 1007.9
20260506100505 6 352 11.3 17.7 0.00 1.75 0.97 93 1007.9
20260506100011 6 352 12.9 22.5 0.00 1.75 0.97 93 1007.8
20260506095505 6 9 16.1 22.5 0.00 1.75 0.97 93 1007.8
20260506095002 6 348 16.1 22.5 0.00 1.75 0.97 93 1007.7
20260506094516 6 360 9.7 20.9 0.00 1.75 0.97 93 1007.7
20260506094005 6 345 14.5 20.9 0.00 1.75 0.97 93 1007.6
20260506093506 6 324 14.5 20.9 0.00 1.75 0.97 93 1007.5
20260506093014 6 331 14.5 24.1 0.00 1.75 0.97 93 1007.5
20260506092505 6 352 17.7 24.1 0.03 1.75 0.97 93 1007.5
20260506092003 6 343 16.1 22.5 0.03 1.75 0.97 93 1007.5
20260506091517 6 352 14.5 24.1 0.03 1.75 0.97 93 1007.7
20260506091003 6 336 14.5 25.7 0.05 1.75 0.97 93 1007.8
20260506090503 6 352 17.7 25.7 0.08 1.75 0.97 93 1007.8
20260506090018 6 339 19.3 29.0 0.10 1.75 0.97 93 1007.7
20260506085508 6 352 20.9 30.6 0.13 1.75 0.97 94 1007.6
20260506085003 6 346 24.1 30.6 0.13 1.75 0.97 93 1007.5
20260506084515 6 360 17.7 27.4 0.15 1.75 0.97 94 1007.4
20260506084005 6 350 19.3 27.4 0.18 1.75 0.97 94 1007.6
20260506083506 7 339 19.3 27.4 0.20 1.75 0.97 94 1007.5
20260506083017 7 326 19.3 27.4 0.20 1.75 0.97 94 1007.3
20260506082505 7 334 19.3 27.4 0.20 1.73 0.94 94 1007.4
20260506082005 7 329 16.1 22.5 0.23 1.73 0.94 94 1007.2
20260506081516 7 329 17.7 22.5 0.23 1.73 0.94 94 1007.2
20260506081006 7 330 12.9 19.3 0.20 1.70 0.91 94 1007.5
20260506080503 7 343 9.7 20.9 0.18 1.68 0.89 94 1007.7
20260506073506 7 341 17.7 27.4 0.05 1.55 0.76 93 1007.1
20260506073018 7 340 19.3 27.4 0.08 1.55 0.76 93 1007.0
20260506072508 7 342 14.5 24.1 0.08 1.52 0.74 93 1007.1
20260506072006 7 325 17.7 25.7 0.08 1.47 0.71 93 1007.1
20260506071516 7 340 16.1 25.7 0.10 1.47 0.71 93 1006.9
20260506071005 7 346 17.7 27.4 0.13 1.47 0.71 93 1006.7